{"data":{"norad_id":64821,"intl_designator":"2025-151F","name":"KUIPER-00074","alt_names":[],"object_type":"PAYLOAD","status":"ACTIVE","operator":null,"country":"US","launch_date":"2025-07-16","launch_site_code":"AFETR","launch_vehicle":null,"mission":null,"orbit_class":"UNKNOWN","rcs_meters":null,"size_class":null,"mass_kg":null,"dimensions":null,"purposes":[],"wikipedia_slug":null,"has_3d_model":false,"image_url":null,"decayed_at":null,"tle_current":{"epoch":"2026-05-25T04:24:25.810848Z","epoch_age_seconds":69770,"freshness":"FRESH","line1":"1 64821U 25151F   26145.18363207  .00331090  00000+0  16203-2 0  9992","line2":"2 64821  51.8907 264.2759 0007651 295.4981  64.5233 15.80775168 47434","mean_motion":15.80775168,"eccentricity":0.0007651,"inclination_deg":51.8907,"raan_deg":264.2759,"arg_perigee_deg":295.4981,"mean_anomaly_deg":64.5233,"bstar":0.0016203,"rev_number":4743,"period_min":91.094548367804,"perigee_km":323.11626843395,"apogee_km":333.37837772512,"semimajor_km":6706.3843230795,"source":"CELESTRAK","updated_at":"2026-05-25T13:38:04.822662Z"}}}